"Pseudo-MPEC" for C3TF4E1

Created 2023 Sep 19 11:22:09 UT using Find_Orb

Click here for an explanation of pseudo-MPECs

 
 Astrometry: 
     C3TF4E1*1C2023 09 18.41508703 43 16.842-21 04 30.97   ~9ICb 19.46GVNEOCP703
     C3TF4E1 1C2023 09 18.42043703 43 17.036-21 04 36.77   ~9ICb 20.34GVNEOCP703
     C3TF4E1 1C2023 09 18.42576203 43 17.008-21 04 42.74   ~9ICb 19.63GVNEOCP703
     C3TF4E1 1C2023 09 18.43108603 43 17.076-21 04 48.65   ~9ICb 19.61GVNEOCP703

Station data:
(703) Catalina Sky Survey  (N32.417003 W110.732640)  US/Arizona.  Observer E.
   J. Christensen. 0.68 m Schmidt + 10K CCD.

Orbital elements:  C3TF4E1
   Perihelion 2023 Jun 7.01939 +/- 165 TT =  0:27:55 (JD 2460102.51939)
Epoch 2023 Sep 18.0 TT = JDT 2460205.5   Earth MOID: 0.4141   Ju: 0.9797
M  11.56168022 +/- 60               Ma: 0.0481                   AutoNEOCP
n   0.11227045 +/- 0.244            Peri.  176.00609 +/- 80
a   4.25558288 +/- 6.16             Node   141.77443 +/- 60
e   0.6647846 +/- 0.244             Incl.   27.01655 +/- 17
P   8.78                   H 17.16  G  0.15   U 11.8  SR
q 1.42653671 +/- 0.922    Q 7.08462905 +/- 8.16           (J2000 ecliptic)
From 4 observations 2023 Sept. 18 (23.0 min); mean residual 0".47
Residuals in arcseconds: 
230918 703  .66-  .07-    230918 703  .23-  .01-    
230918 703  1.1+  .06+    230918 703  .22-  .03-    

Ephemerides (geocentric):
Date (UTC) HH   RA             Dec           delta  r     elong  mag " sig PA
---- --------  ------------   ------------  ------ ------ -----  --- --------
2023 09 19 11  03 43 31.389   -21 23 30.49  1.1446 1.8510 118.8 20.0  17d 104
2023 09 19 12  03 43 31.912   -21 24 16.01  1.1447 1.8512 118.8 20.0  18d 104
2023 09 19 13  03 43 32.431   -21 25 01.51  1.1448 1.8515 118.8 20.0  18d 104
2023 09 19 14  03 43 32.946   -21 25 46.99  1.1448 1.8518 118.8 20.0  18d 104
2023 09 19 15  03 43 33.455   -21 26 32.46  1.1449 1.8521 118.9 20.0  18d 104
2023 09 19 16  03 43 33.960   -21 27 17.90  1.1450 1.8524 118.9 20.0  18d 104
2023 09 19 17  03 43 34.460   -21 28 03.32  1.1451 1.8526 118.9 20.0  18d 104
2023 09 19 18  03 43 34.955   -21 28 48.73  1.1451 1.8529 118.9 20.0  18d  76
2023 09 19 19  03 43 35.446   -21 29 34.11  1.1452 1.8532 118.9 20.0  18d  76
2023 09 19 20  03 43 35.932   -21 30 19.48  1.1453 1.8535 119.0 20.0  18d  76
2023 09 19 21  03 43 36.413   -21 31 04.83  1.1454 1.8538 119.0 20.0  18d  76
2023 09 19 22  03 43 36.889   -21 31 50.16  1.1454 1.8540 119.0 20.0  18d  76
2023 09 19 23  03 43 37.361   -21 32 35.47  1.1455 1.8543 119.0 20.0  18d  76
2023 09 20 00  03 43 37.828   -21 33 20.76  1.1456 1.8546 119.1 20.0  18d  76
2023 09 20 01  03 43 38.290   -21 34 06.03  1.1457 1.8549 119.1 20.0  18d  76
2023 09 20 02  03 43 38.747   -21 34 51.28  1.1458 1.8552 119.1 20.0  18d  76
2023 09 20 03  03 43 39.200   -21 35 36.51  1.1458 1.8554 119.1 20.0  18d  76
2023 09 20 04  03 43 39.648   -21 36 21.73  1.1459 1.8557 119.2 20.0  18d  76
2023 09 20 05  03 43 40.091   -21 37 06.92  1.1460 1.8560 119.2 20.0  18d  76
2023 09 20 06  03 43 40.530   -21 37 52.09  1.1461 1.8563 119.2 20.0  18d  76
2023 09 20 07  03 43 40.963   -21 38 37.25  1.1462 1.8566 119.2 20.0  18d  75
2023 09 20 08  03 43 41.392   -21 39 22.38  1.1462 1.8569 119.3 20.0  19d  75
2023 09 20 09  03 43 41.817   -21 40 07.49  1.1463 1.8571 119.3 20.0  22d  82
2023 09 20 10  03 43 42.236   -21 40 52.59  1.1464 1.8574 119.3 20.0  23d  86
2023 09 20 11  03 43 42.651   -21 41 37.66  1.1465 1.8577 119.3 20.0  23d  88
2023 09 20 12  03 43 43.062   -21 42 22.72  1.1466 1.8580 119.3 20.0  24d  88
2023 09 20 13  03 43 43.467   -21 43 07.75  1.1466 1.8583 119.4 20.0  24d  89
2023 09 20 14  03 43 43.868   -21 43 52.77  1.1467 1.8585 119.4 20.0  24d  89
2023 09 20 15  03 43 44.264   -21 44 37.76  1.1468 1.8588 119.4 20.0  24d  89
2023 09 20 16  03 43 44.655   -21 45 22.74  1.1469 1.8591 119.4 20.0  24d  89
2023 09 20 17  03 43 45.042   -21 46 07.69  1.1470 1.8594 119.5 20.0  24d  89
2023 09 20 18  03 43 45.424   -21 46 52.62  1.1470 1.8597 119.5 20.0  24d  89
2023 09 20 19  03 43 45.801   -21 47 37.54  1.1471 1.8599 119.5 20.0  24d  89
2023 09 20 20  03 43 46.174   -21 48 22.43  1.1472 1.8602 119.5 20.0  24d  90
2023 09 20 21  03 43 46.541   -21 49 07.30  1.1473 1.8605 119.6 20.0  24d  90
2023 09 20 22  03 43 46.904   -21 49 52.16  1.1474 1.8608 119.6 20.0  24d  90
2023 09 20 23  03 43 47.263   -21 50 36.99  1.1474 1.8611 119.6 20.0  24d  90
2023 09 21 00  03 43 47.617   -21 51 21.80  1.1475 1.8613 119.6 20.0  24d  90
2023 09 21 01  03 43 47.966   -21 52 06.59  1.1476 1.8616 119.6 20.0  24d  90
2023 09 21 02  03 43 48.310   -21 52 51.36  1.1477 1.8619 119.7 20.0  24d  90
2023 09 21 03  03 43 48.649   -21 53 36.11  1.1478 1.8622 119.7 20.0  24d  90
2023 09 21 04  03 43 48.984   -21 54 20.84  1.1479 1.8625 119.7 20.0  24d  90
2023 09 21 05  03 43 49.314   -21 55 05.54  1.1479 1.8628 119.7 20.0  24d  90
2023 09 21 06  03 43 49.640   -21 55 50.23  1.1480 1.8630 119.8 20.0  24d  90
2023 09 21 07  03 43 49.961   -21 56 34.89  1.1481 1.8633 119.8 20.0  24d  90
2023 09 21 08  03 43 50.277   -21 57 19.54  1.1482 1.8636 119.8 20.0  24d  90
2023 09 21 09  03 43 50.588   -21 58 04.16  1.1483 1.8639 119.8 20.0  24d  90
2023 09 21 10  03 43 50.895   -21 58 48.76  1.1484 1.8642 119.9 20.0  24d  90